| time (UTC) | temp C | wind direction | speed KPH | gust KPH | rain 1hr cm | rain 24hr cm | rain mn cm | humidity % | barometer mb |
| 20260508023047 | 10 | 343 | 1.6 | 6.4 | 0.00 | 0.38 | 0.33 | 49 | 1006.5 |
| 20260508021601 | 10 | 350 | 3.2 | 14.5 | 0.00 | 0.38 | 0.33 | 47 | 1006.5 |
| 20260508020054 | 11 | 5 | 8.0 | 16.1 | 0.00 | 0.38 | 0.33 | 46 | 1006.2 |
| 20260508014552 | 11 | 344 | 11.3 | 17.7 | 0.00 | 0.41 | 0.33 | 47 | 1006.1 |
| 20260508013048 | 11 | 347 | 3.2 | 8.0 | 0.00 | 0.41 | 0.33 | 46 | 1006.0 |
| 20260508011548 | 11 | 344 | 4.8 | 11.3 | 0.00 | 0.41 | 0.33 | 45 | 1006.0 |
| 20260508010053 | 12 | 341 | 1.6 | 14.5 | 0.00 | 0.41 | 0.33 | 42 | 1005.8 |
| 20260508004556 | 12 | 331 | 8.0 | 17.7 | 0.00 | 0.46 | 0.33 | 42 | 1005.4 |
| 20260508003054 | 12 | 346 | 9.7 | 16.1 | 0.00 | 0.46 | 0.33 | 41 | 1005.1 |
| 20260508001550 | 13 | 343 | 4.8 | 9.7 | 0.00 | 0.46 | 0.33 | 42 | 1005.0 |
| 20260508000053 | 13 | 337 | 9.7 | 14.5 | 0.00 | 0.46 | 0.33 | 40 | 1004.7 |
| 20260507234548 | 13 | 349 | 4.8 | 12.9 | 0.00 | 0.46 | 0.33 | 39 | 1004.7 |
| 20260507233053 | 14 | 327 | 8.0 | 16.1 | 0.00 | 0.46 | 0.33 | 38 | 1004.6 |
| 20260507211556 | 16 | 321 | 11.3 | 19.3 | 0.00 | 0.64 | 0.33 | 33 | 1003.3 |
| 20260507210108 | 16 | 280 | 14.5 | 29.0 | 0.00 | 0.64 | 0.33 | 35 | 1003.3 |
| 20260507204550 | 16 | 320 | 12.9 | 24.1 | 0.00 | 0.76 | 0.33 | 34 | 1003.1 |
| 20260507203116 | 16 | 318 | 14.5 | 32.2 | 0.00 | 0.76 | 0.33 | 37 | 1003.1 |
| 20260507201552 | 16 | 355 | 16.1 | 30.6 | 0.00 | 0.76 | 0.33 | 34 | 1003.0 |
| 20260507200046 | 16 | 304 | 14.5 | 29.0 | 0.00 | 0.76 | 0.33 | 39 | 1003.0 |
| 20260507194604 | 15 | 204 | 9.7 | 20.9 | 0.00 | 0.89 | 0.33 | 46 | 1002.9 |
| 20260507193049 | 12 | 178 | 12.9 | 24.1 | 0.00 | 0.89 | 0.33 | 72 | 1003.2 |
| 20260507191554 | 11 | 150 | 11.3 | 16.1 | 0.00 | 0.89 | 0.33 | 77 | 1003.3 |
| 20260507190057 | 10 | 183 | 16.1 | 22.5 | 0.00 | 0.89 | 0.33 | 80 | 1003.3 |
| 20260507184553 | 11 | 175 | 16.1 | 20.9 | 0.00 | 0.89 | 0.33 | 79 | 1003.5 |
| 20260507183056 | 10 | 178 | 17.7 | 25.7 | 0.00 | 0.89 | 0.33 | 81 | 1003.5 |
| 20260507181555 | 10 | 175 | 20.9 | 27.4 | 0.00 | 0.89 | 0.33 | 80 | 1003.8 |
| 20260507093049 | 8 | 0 | 0.0 | 6.4 | 0.00 | 0.89 | 0.33 | 88 | 1005.6 |
| 20260507091546 | 8 | 338 | 8.0 | 14.5 | 0.00 | 0.89 | 0.33 | 87 | 1005.6 |
| 20260507090050 | 8 | 331 | 6.4 | 20.9 | 0.00 | 0.89 | 0.33 | 86 | 1005.6 |
| 20260507084548 | 8 | 338 | 11.3 | 22.5 | 0.00 | 0.89 | 0.33 | 87 | 1005.8 |
| 20260507083049 | 8 | 329 | 12.9 | 20.9 | 0.00 | 0.89 | 0.33 | 90 | 1005.0 |
| 20260507081553 | 9 | 334 | 8.0 | 14.5 | 0.00 | 0.89 | 0.33 | 91 | 1005.4 |
| 20260507080053 | 9 | 333 | 4.8 | 16.1 | 0.00 | 0.89 | 0.33 | 91 | 1005.1 |
| 20260507074558 | 9 | 325 | 8.0 | 16.1 | 0.00 | 0.89 | 0.33 | 91 | 1005.2 |
| 20260507073101 | 9 | 350 | 8.0 | 22.5 | 0.00 | 0.89 | 0.33 | 91 | 1004.9 |
| 20260507071554 | 9 | 335 | 8.0 | 16.1 | 0.00 | 0.89 | 0.33 | 92 | 1005.0 |
| 20260507070105 | 10 | 320 | 6.4 | 11.3 | 0.00 | 0.89 | 0.33 | 93 | 1004.8 |
| 20260507064556 | 10 | 336 | 3.2 | 8.0 | 0.00 | 0.89 | 0.33 | 94 | 1004.4 |
| 20260507060055 | 10 | 335 | 8.0 | 14.5 | 0.00 | 0.89 | 0.33 | 95 | 1004.2 |
| 20260507054550 | 10 | 338 | 9.7 | 24.1 | 0.03 | 0.89 | 0.33 | 96 | 1004.5 |
| 20260507053102 | 10 | 355 | 9.7 | 24.1 | 0.13 | 0.89 | 0.33 | 97 | 1004.1 |
| 20260507051553 | 11 | 336 | 4.8 | 14.5 | 0.28 | 0.89 | 0.33 | 97 | 1004.3 |
| 20260507050050 | 10 | 344 | 6.4 | 12.9 | 0.33 | 0.89 | 0.33 | 97 | 1003.9 |
| 20260507044606 | 10 | 323 | 3.2 | 9.7 | 0.33 | 0.86 | 0.30 | 97 | 1003.7 |
| 20260507043050 | 10 | 298 | 11.3 | 25.7 | 0.23 | 0.76 | 0.20 | 97 | 1004.2 |
| 20260507041551 | 10 | 231 | 9.7 | 20.9 | 0.08 | 0.61 | 0.05 | 97 | 1003.7 |